Cecil Field, FL

3:48 PM EST on January 18, 2018 (GMT -0500)
Cecil

Weather History for KVQQ - December, 2013

Change the Weather History Date:

Monday, December 23, 2013

  Actual Average (KNIP) Record (KNIP)
Temperature  
Mean Temperature 70 °F -  
Max Temperature 82 °F 61 °F 82 °F (2013)
Min Temperature 59 °F 43 °F 33 °F (2000)
Cooling Degree Days 6    
Growing Degree Days 20 (Base 50)    
Moisture  
Dew Point 66 °F    
Average Humidity 91    
Maximum Humidity 100    
Minimum Humidity 58    
Precipitation  
Precipitation 0.00 in - - ()
Sea Level Pressure  
Sea Level Pressure 30.13 in    
Wind  
Wind Speed 4 mph (SSW)    
Max Wind Speed 16 mph    
Max Gust Speed 28 mph    
Visibility 9 miles    
Events Rain    
Averages and records for this station are not official NWS values.
T = Trace of Precipitation, MM = Missing Value Source: NWS Daily Summary

Daily Weather History Graph

Daily Weather History Graph

Search for Another Location

Airport or City:

Trip Planner

Search our weather history database for the weather conditions in past years. The results will help you decide how hot, cold, wet, or windy it might be!

Date:

Astronomy

Dec. 23, 2013 Rise Set
Actual Time 7:20 AM EST 5:32 PM EST
Civil Twilight 6:54 AM EST 5:59 PM EST
Nautical Twilight 6:24 AM EST 6:29 PM EST
Astronomical Twilight 5:55 AM EST 6:58 PM EST
Moon 11:17 PM EST (12/23) 11:07 AM EST (12/23)
Length of Visible Light 11h 04m
Length of Day
10h 11m
Waning Gibbous, 68% of the Moon is Illuminated
Dec 23
Waning Gibbous
Dec 25
Last Quarter
Jan 1
New
Jan 7
First Quarter
Jan 15
Full

Hourly Weather History & Observations

Time (EST) Temp. Heat Index Dew Point Humidity Pressure Visibility Wind Dir Wind Speed Gust Speed Precip Events Conditions
12:15 AM 64.4 °F - 64.4 °F 100% 30.14 in 5.0 mi Calm Calm - N/A   Partly Cloudy
12:35 AM 64.4 °F - 64.4 °F 100% 30.14 in 5.0 mi SE 3.5 mph - N/A   Clear
12:55 AM 64.4 °F - 62.6 °F 94% 30.14 in 7.0 mi Calm Calm - N/A   Clear
1:15 AM 66.2 °F - 64.4 °F 94% 30.13 in 8.0 mi Calm Calm - N/A   Clear
1:35 AM 66.2 °F - 66.2 °F 100% 30.13 in 10.0 mi SSE 3.5 mph - N/A   Clear
1:55 AM 68.0 °F - 66.2 °F 94% 30.13 in 10.0 mi Calm Calm - N/A   Partly Cloudy
2:15 AM 66.2 °F - 66.2 °F 100% 30.12 in 9.0 mi Calm Calm - N/A   Scattered Clouds
2:35 AM 66.2 °F - 66.2 °F 100% 30.12 in 8.0 mi Calm Calm - N/A   Partly Cloudy
2:55 AM 66.2 °F - 66.2 °F 100% 30.12 in 10.0 mi Calm Calm - N/A   Partly Cloudy
3:15 AM 64.4 °F - 64.4 °F 100% 30.12 in 8.0 mi Calm Calm - N/A   Partly Cloudy
3:35 AM 66.2 °F - 66.2 °F 100% 30.12 in 10.0 mi SSE 3.5 mph - N/A   Mostly Cloudy
3:55 AM 68.0 °F - 66.2 °F 94% 30.12 in 10.0 mi SSE 5.8 mph - N/A   Scattered Clouds
4:15 AM 68.0 °F - 66.2 °F 94% 30.12 in 10.0 mi South 6.9 mph - N/A   Scattered Clouds
4:35 AM 68.0 °F - 66.2 °F 94% 30.12 in 10.0 mi SSE 5.8 mph - N/A   Scattered Clouds
4:55 AM 68.0 °F - 66.2 °F 94% 30.12 in 10.0 mi SSE 4.6 mph - N/A   Partly Cloudy
5:15 AM 68.0 °F - 66.2 °F 94% 30.12 in 9.0 mi SSE 4.6 mph - N/A   Clear
5:35 AM 68.0 °F - 66.2 °F 94% 30.12 in 8.0 mi South 4.6 mph - N/A   Clear
5:55 AM 66.2 °F - 66.2 °F 100% 30.13 in 8.0 mi South 3.5 mph - N/A   Clear
6:15 AM 66.2 °F - 66.2 °F 100% 30.13 in 7.0 mi SSE 4.6 mph - N/A   Clear
6:35 AM 66.2 °F - 66.2 °F 100% 30.13 in 7.0 mi SSE 5.8 mph - N/A   Clear
6:50 AM 68.0 °F - 66.2 °F 94% 30.13 in 7.0 mi South 4.6 mph - N/A   Mostly Cloudy
7:30 AM 68.0 °F - 68.0 °F 100% 30.14 in 5.0 mi South 4.6 mph - N/A   Overcast
7:50 AM 68.0 °F - 68.0 °F 100% 30.14 in 2.0 mi South 9.2 mph - N/A   Overcast
8:50 AM 69.8 °F - 68.0 °F 94% 30.15 in 5.0 mi SSW 6.9 mph - N/A   Overcast
9:50 AM 73.4 °F - 68.0 °F 83% 30.17 in 7.0 mi SSW 11.5 mph - N/A   Overcast
10:50 AM 75.2 °F - 68.0 °F 78% 30.17 in 10.0 mi SW 9.2 mph - N/A   Overcast
11:50 AM 75.2 °F - 68.0 °F 78% 30.14 in 10.0 mi SSW 11.5 mph - N/A   Overcast
12:50 PM 78.8 °F - 68.0 °F 69% 30.10 in 10.0 mi SSW 15.0 mph 23.0 mph N/A   Mostly Cloudy
1:50 PM 80.6 °F 82.7 °F 66.2 °F 61% 30.09 in 10.0 mi SW 11.5 mph 25.3 mph N/A   Mostly Cloudy
2:50 PM 82.4 °F 84.6 °F 66.2 °F 58% 30.07 in 10.0 mi WSW 13.8 mph - N/A   Mostly Cloudy
3:50 PM 80.6 °F 82.7 °F 66.2 °F 61% 30.07 in 10.0 mi SW 8.1 mph - N/A   Mostly Cloudy
4:50 PM 78.8 °F - 68.0 °F 69% 30.09 in 10.0 mi West 5.8 mph - N/A   Mostly Cloudy
5:50 PM 75.2 °F - 68.0 °F 78% 30.11 in 10.0 mi West 5.8 mph - N/A   Mostly Cloudy
6:50 PM 73.4 °F - 68.0 °F 83% 30.11 in 10.0 mi Calm Calm - N/A   Scattered Clouds
7:50 PM 71.6 °F - 66.2 °F 83% 30.12 in 10.0 mi Calm Calm - N/A   Scattered Clouds
8:15 PM 71.6 °F - 68.0 °F 88% 30.12 in 10.0 mi Calm Calm - N/A   Scattered Clouds
8:35 PM 69.8 °F - 66.2 °F 88% 30.12 in 10.0 mi Calm Calm - N/A   Partly Cloudy
8:55 PM 68.0 °F - 66.2 °F 94% 30.11 in 10.0 mi Calm Calm - N/A   Mostly Cloudy
9:15 PM 68.0 °F - 68.0 °F 100% 30.12 in 9.0 mi Calm Calm - N/A   Scattered Clouds
9:35 PM 68.0 °F - 68.0 °F 100% 30.11 in 7.0 mi Calm Calm - N/A   Clear
9:55 PM 68.0 °F - 68.0 °F 100% 30.12 in 6.0 mi Calm Calm - N/A Rain Light Rain
10:15 PM 68.0 °F - 68.0 °F 100% 30.13 in 7.0 mi NNW 11.5 mph - N/A   Overcast
10:35 PM 64.4 °F - 62.6 °F 94% 30.14 in 10.0 mi NW 16.1 mph 27.6 mph N/A   Overcast
10:55 PM 62.6 °F - 60.8 °F 94% 30.15 in 10.0 mi NW 11.5 mph 16.1 mph N/A   Overcast
11:15 PM 60.8 °F - 59.0 °F 94% 30.16 in 10.0 mi NNW 12.7 mph - N/A   Overcast
11:35 PM 59.0 °F - 57.2 °F 94% 30.16 in 10.0 mi NW 13.8 mph - N/A   Overcast
11:55 PM 59.0 °F - 57.2 °F 94% 30.16 in 10.0 mi NW 10.4 mph - N/A   Overcast